Regional Weather Roundup
Issued by NWS

Home | Current Version | Previous Version | Graphics & Text | Print | Product List | Glossary On
Versions: 1 2 3 4 5 6 7 8 9 10 11 12 13 14 15 16 17 18 19 20 21 22 23 24 25 26 27
000
ASUS45 KBOU 220107
RWRCO

WEATHER ROUNDUP FOR COLORADO
NATIONAL WEATHER SERVICE DENVER/BOULDER CO
700 PM MDT SUN MAY 21 2017

NOTE: "FAIR" INDICATES FEW OR NO CLOUDS BELOW 12000 FEET WITH NO
SIGNIFICANT WEATHER AND/OR OBSTRUCTIONS TO VISIBILITY.

COZ001>005-013-030-031-220200-
...NORTHWEST COLORADO...

CITY           SKY/WX    TMP DP  RH WIND       PRES   REMARKS
CRAIG          CLOUDY    52  38  58 N18       30.21R
HAYDEN         CLOUDY    52  34  50 N14       30.21R
MEEKER         CLOUDY    56  35  45 NW13G20   30.21R
RABBIT EARS PA TSTM      32  32 100 NW5       30.35R VSB<1/4 WCI  27
STEAMBOAT SPGS CLOUDY    46  38  73 N7        30.24R
WALDEN           N/A     37  34  87 N8        30.31S
$$

COZ006>008-011-220200-
...WEST CENTRAL VALLEYS...

CITY           SKY/WX    TMP DP  RH WIND       PRES   REMARKS
GRAND JUNCTION FAIR      65  35  33 NW12      30.12R
MONTROSE       CLOUDY    65  31  28 NW6       30.13S
EAGLE          PTSUNNY   61  28  29 SW13      30.17S
RIFLE          CLOUDY    63  34  33 NW20G26   30.14R
DELTA          PTSUNNY   69  32  25 NW17G25   30.11R
NUCLA          CLOUDY    61  32  33 NW14G26   30.22R
$$

COZ017>023-064>068-220200-
...SOUTHWEST COLORADO...

CITY           SKY/WX    TMP DP  RH WIND       PRES   REMARKS
DURANGO        CLOUDY    66  27  23 N6        30.14S
CORTEZ         FAIR      68  26  20 W8        30.13S
PAGOSA SPRINGS FAIR      59  26  28 NW7       30.21S
TELLURIDE      PTSUNNY   52  28  39 W9        30.31R
WOLF CREEK PAS CLOUDY    36  25  64 W7        30.45S
$$

COZ009-010-012-014-032>034-037-058>063-220200-
...CENTRAL COLORADO...

CITY           SKY/WX    TMP DP  RH WIND       PRES   REMARKS
ASPEN          PTSUNNY   54  28  36 E3        30.20S
BUENA VISTA    FAIR      59  20  22 W14       30.18S
COPPER MTN     PTSUNNY   34  30  86 CALM      30.40R
BERTHOUD PASS  CLOUDY    28  18  64 W6        30.41S VSB 1/2 WCI  22
COTTONWOOD PAS FAIR      50  21  32 NW3       30.29R
GUNNISON       FAIR      60  24  25 W15       30.18S
KREMMLING      CLOUDY    54  37  54 N3        30.25R THUNDER
LEADVILLE      CLOUDY    47  24  40 N12G21    30.28S
MONARCH PASS   FAIR      37  21  52 W22       30.48S
SALIDA         PTSUNNY   62  24  23 SE12G21   30.23R
SUNLIGHT       PTSUNNY   39  25  56 CALM      30.37F THUNDER
WILKERSON PASS FLURRIES  36  25  64 S5        30.40R
$$

COZ069>075-220200-
...SAN LUIS VALLEY/SANGRE DE CRISTO MOUNTAINS...

CITY           SKY/WX    TMP DP  RH WIND       PRES   REMARKS
ALAMOSA        CLOUDY    61  25  25 NW20G29   30.16R
DEL NORTE      PTSUNNY   58  24  27 W7        30.20F
LA VETA PASS   CLOUDY    43  32  65 NE18G24   30.42R
SAGUACHE       DRIZZLE   54  30  40 N18G26    30.22R
$$

COZ035-036-038>040-220200-
...NORTHERN COLORADO FRONT RANGE...

CITY           SKY/WX    TMP DP  RH WIND       PRES   REMARKS
DENVER INTL AP PTSUNNY   54  44  69 N14       30.19R
DMNS CITY PARK   N/A     56  39  51 N21       30.19R
AURORA         PTSUNNY   56  40  55 N16       30.19R
FRONT RANGE AP PTSUNNY   55  46  71 N14G28    30.19S
ERIE MUNI ARPT CLOUDY    56  42  58 N14G21    30.19R
BOULDER MUN AP CLOUDY    55  43  62 N7        30.19R
CENTENNIAL     PTSUNNY   54  40  59 N17       30.19R
BROOMFIELD     PTSUNNY   55  41  58 N13       30.20R
FORT COLLINS   LGT RAIN  49  45  86 N9        30.22R
LONGMONT       CLOUDY    55  43  63 N17G25    30.21R
$$

COZ041-046-047-076>085-087-088-220200-
...PIKES PEAK/PALMER DIVIDE AND SOUTHERN FOOTHILLS...

CITY           SKY/WX    TMP DP  RH WIND       PRES   REMARKS
COLO. SPRINGS  LGT RAIN  63  35  35 E6        30.17R
A. F. ACADEMY  FAIR      57  37  46 N7        30.18R
SCHRIEVER AFB  FAIR      60  35  39 S5        30.17R
CHEYENNE MTN   PTSUNNY   56  33  43 W9        30.14
ELLICOTT       FAIR     N/A N/A N/A E8        30.15S
FALCON         FAIR      56  33  41 W5        30.20S
FORT CARSON    FAIR      63  32  30 CALM      30.14R
LIMON          FAIR      62  38  40 E12       30.13F
MONUMENT HILL  CLOUDY    52  36  54 N6        30.23R
CANON CITY     NOT AVBL
WALSENBURG     FAIR      63  43  48 NE9       30.14R
TRINIDAD       FAIR      66  36  32 NE16      30.11R
$$

COZ042>045-048>051-090-091-220200-
...NORTHEAST COLORADO...

CITY           SKY/WX    TMP DP  RH WIND       PRES   REMARKS
GREELEY ARPT   PTSUNNY   54  44  69 NW13      30.20
AKRON            N/A     55  42  61 N13       30.15S
BURLINGTON     FAIR      64  46  52 SE8       30.12S
WRAY           CLOUDY    64  41  42 N5        30.11R
YUMA           LGT RAIN  52  34  50 N18G28    30.14R
STERLING       FAIR      54  46  76 NE12      30.16S
HOLYOKE        NOT AVBL
FORT MORGAN    CLOUDY    55  45  70 CALM      30.17S
$$

COZ086-089-092>099-220200-
...SOUTHEAST COLORADO...

CITY           SKY/WX    TMP DP  RH WIND       PRES   REMARKS
PUEBLO         FAIR      67  37  33 E12       30.09R
LA JUNTA       FAIR      69  41  36 E12       30.08R
LAMAR          FAIR      68  47  46 E15G25    30.05R
SPRINGFIELD      N/A     62  48  60 S15       30.08R
$$




USA.gov is the U.S. government's official web portal to all federal, state and local government web resources and services.